Temperature
3 3 3 4 4 4 4 4 5 5 5 5 5 5 5 5 5 5 5 5 5 5 5 5 5 5 5 5 5 5 5 5 5 5 5 5 5 5 5 4 4 4 4
2 2 3 3 3 3 3 3 4 4 4 4 4 4 4 4 4 4 5 5 5 5 5 5 5 5 5 5 5 4 4 4 4 4 4 4 4 4 4 4 4 4 4
1 1 2 2 2 2 2 3 3 3 3 3 3 3 3 3 4 4 4 4 4 4 4 4 4 4 4 4 4 4 4 4 4 4 4 4 4 3 3 3 3 3 3
1 1 1 1 1 2 2 2 2 2 2 2 2 3 3 3 3 3 3 3 4 4 4 4 4 4 4 4 4 4 4 3 3 3 3 3 3 3 3 3 3 3 3
0 0 0 0 1 1 1 1 1 2 2 2 2 2 2 2 2 3 3 3 3 3 3 3 3 3 3 3 3 3 3 3 3 3 3 3 3 3 3 3 3 3 3
-1 -0 -0 -0 0 0 0 1 1 1 1 1 1 1 1 2 2 2 2 2 2 2 3 3 3 3 3 3 3 3 3 3 2 2 2 2 2 2 2 2 2 2 2
-1 -1 -1 -1 -0 -0 -0 0 0 0 1 1 1 1 1 1 1 1 2 1 2 2 2 2 2 2 2 2 2 2 2 2 2 2 2 2 2 2 2 2 2 1 1
-2 -2 -2 -1 -1 -1 -1 -1 -1 -0 -0 -0 0 0 0 1 1 1 1 1 1 1 2 2 2 2 2 2 2 2 2 2 2 2 2 2 2 1 1 1 1 1 1
-3 -2 -2 -2 -2 -2 -1 -1 -1 -1 -1 -1 -0 -0 -0 -0 0 0 0 0 1 1 1 1 1 1 1 1 1 1 1 1 1 1 1 1 1 1 1 1 0 0 0
-3 -3 -3 -3 -3 -2 -2 -2 -1 -1 -1 -1 -1 -1 -1 -0 -0 -0 -0 -0 -0 0 0 0 0 1 1 1 1 1 1 1 1 1 1 0 0 0 0 0 0 -0 -1
-4 -4 -4 -3 -3 -3 -3 -2 -2 -2 -2 -2 -1 -1 -1 -1 -1 -1 -1 -1 -1 -1 -0 -0 -0 -0 0 0 0 0 1 0 0 0 0 0 -0 -0 -0 -0 -0 -0 -1
-5 -4 -4 -4 -4 -3 -3 -3 -3 -3 -2 -2 -2 -2 -2 -2 -1 -1 -1 -1 -1 -1 -1 -1 -1 -0 -0 -0 -0 0 0 0 -0 -0 -0 -0 -1 -1 -1 -1 -1 -1 -1
-5 -5 -5 -4 -4 -4 -4 -4 -3 -3 -3 -3 -3 -3 -3 -2 -2 -2 -2 -2 -1 -1 -1 -1 -1 -1 -1 -1 -1 -1 -1 -1 -1 -1 -1 -1 -1 -1 -1 -1 -1 -1 -1
-5 -5 -5 -5 -5 -4 -4 -4 -4 -4 -4 -3 -4 -3 -3 -3 -3 -3 -2 -2 -2 -2 -2 -2 -2 -1 -1 -1 -1 -1 -1 -1 -1 -1 -2 -2 -2 -2 -2 -2 -2 -2 -2
-6 -6 -6 -5 -5 -5 -5 -5 -4 -4 -4 -4 -4 -4 -4 -4 -3 -3 -3 -3 -2 -2 -2 -2 -2 -2 -2 -2 -2 -2 -2 -2 -2 -2 -2 -2 -2 -2 -2 -2 -2 -2 -2
-6 -6 -6 -6 -6 -6 -5 -5 -5 -5 -4 -5 -5 -5 -4 -4 -4 -4 -3 -3 -3 -3 -3 -3 -3 -3 -3 -2 -2 -2 -3 -2 -3 -3 -3 -2 -3 -3 -3 -3 -3 -3 -3
-7 -7 -7 -7 -6 -6 -6 -6 -6 -5 -5 -5 -5 -5 -5 -4 -4 -4 -4 -4 -3 -3 -3 -4 -4 -3 -3 -3 -3 -3 -3 -3 -3 -3 -3 -3 -3 -3 -3 -3 -3 -4 -4
-7 -7 -7 -7 -7 -7 -6 -7 -7 -6 -6 -5 -5 -5 -5 -5 -5 -4 -4 -4 -4 -4 -4 -4 -4 -4 -4 -4 -4 -4 -4 -4 -4 -4 -4 -4 -4 -4 -4 -4 -4 -4 -4
-7 -7 -7 -7 -7 -7 -7 -7 -7 -7 -7 -6 -6 -5 -5 -5 -5 -5 -5 -5 -5 -5 -5 -5 -5 -5 -5 -5 -5 -4 -4 -4 -4 -4 -4 -4 -4 -4 -4 -4 -5 -5 -5
-8 -8 -8 -8 -7 -7 -7 -7 -7 -7 -7 -7 -7 -6 -6 -6 -6 -6 -6 -6 -5 -5 -5 -5 -5 -5 -5 -5 -5 -5 -5 -5 -5 -5 -5 -5 -5 -5 -5 -5 -5 -5 -5
-8 -8 -8 -8 -8 -8 -8 -8 -8 -7 -7 -7 -7 -7 -7 -6 -6 -6 -6 -6 -6 -6 -6 -6 -5 -5 -6 -6 -6 -6 -6 -5 -5 -5 -5 -5 -5 -5 -5 -5 -6 -6 -6
-9 -9 -8 -8 -8 -8 -8 -8 -8 -8 -8 -7 -7 -7 -7 -7 -7 -6 -6 -6 -6 -6 -6 -6 -6 -6 -6 -6 -6 -6 -6 -6 -6 -6 -6 -5 -6 -6 -6 -6 -6 -6 -6
-9 -9 -9 -8 -8 -8 -8 -8 -8 -8 -8 -8 -7 -7 -7 -7 -7 -7 -7 -7 -6 -6 -6 -6 -6 -6 -6 -6 -6 -6 -6 -6 -6 -6 -6 -6 -6 -6 -6 -6 -6 -6 -6
-9 -9 -9 -9 -9 -9 -9 -9 -9 -8 -8 -8 -8 -8 -8 -7 -7 -7 -7 -7 -7 -7 -7 -7 -6 -6 -6 -6 -6 -6 -6 -6 -6 -6 -6 -6 -6 -6 -6 -6 -6 -7 -7
-10 -10 -9 -9 -9 -9 -9 -9 -9 -9 -9 -8 -8 -8 -8 -8 -8 -8 -7 -7 -7 -7 -7 -7 -7 -7 -7 -7 -7 -7 -7 -6 -7 -7 -7 -7 -7 -6 -7 -7 -7 -7 -7
-10 -10 -10 -10 -9 -9 -9 -9 -9 -9 -9 -9 -9 -9 -8 -8 -8 -8 -8 -8 -8 -8 -8 -7 -7 -7 -7 -7 -7 -7 -7 -7 -7 -7 -7 -7 -7 -7 -7 -7 -7 -7 -7
Wind_Speed
3 2 2 2 2 2 2 3 3 3 4 4 5 5 5 5 6 6 7 7 7 7 7 7 8 8 6 6 5 5 5 4 5 4 3 3 4 4 4 5 5 6 6
3 3 2 2 2 2 3 3 3 3 4 4 4 5 5 5 6 7 7 7 8 8 8 8 8 7 8 6 6 6 6 5 5 6 4 3 4 4 4 5 4 5 5
3 3 3 2 3 3 3 3 3 4 4 4 4 5 5 6 6 7 7 7 8 8 8 8 8 8 8 7 7 7 6 5 5 5 5 3 3 3 3 4 4 4 4
4 3 3 3 3 3 3 3 3 4 4 4 4 5 5 6 6 6 7 7 7 7 7 7 8 8 9 8 7 7 6 6 5 5 5 4 3 3 3 3 3 3 4
4 3 4 4 4 4 3 3 3 4 4 4 4 5 5 5 5 6 6 7 7 7 7 7 7 7 8 7 6 7 7 6 6 5 5 5 4 4 4 4 4 3 4
4 4 4 4 4 4 3 3 3 4 4 4 5 5 5 5 6 7 6 6 7 7 7 7 7 7 8 9 9 9 9 8 8 7 6 7 7 6 4 4 4 3 4
4 4 4 4 4 4 4 3 3 4 4 4 5 5 6 6 7 7 7 6 7 7 7 6 6 6 7 7 8 8 8 8 9 8 8 8 7 6 6 6 6 5 5
4 4 5 5 4 4 4 4 4 3 3 4 4 5 5 5 6 7 7 7 6 7 6 7 7 7 7 7 6 6 7 7 8 8 8 7 6 6 6 6 5 4 4
5 5 5 5 5 4 4 4 4 3 3 3 3 4 5 5 5 6 6 5 5 6 5 6 6 7 7 8 7 7 6 5 5 7 7 6 6 6 6 4 4 4 4
6 6 6 5 5 4 4 4 4 3 3 3 3 3 4 4 4 5 6 4 5 5 4 5 6 6 7 8 8 7 7 6 5 4 4 5 5 6 7 6 6 5 4
6 6 6 5 5 4 4 4 3 3 2 2 3 3 3 4 4 4 5 4 5 4 4 4 4 6 7 7 8 7 7 6 5 5 4 3 3 3 4 5 5 5 5
6 6 6 5 5 4 3 3 3 2 2 2 2 2 2 3 3 4 5 5 5 4 4 4 4 5 6 6 6 6 6 5 4 4 4 4 4 3 3 3 4 4 4
6 6 6 5 4 4 3 3 3 2 2 2 2 2 2 2 2 3 4 5 5 4 3 4 4 5 5 5 5 5 5 4 4 4 4 4 3 2 2 1 2 2 2
6 6 5 5 5 4 3 3 2 2 2 2 2 2 2 2 2 2 2 3 3 3 2 3 3 3 3 3 3 3 3 3 4 4 3 2 2 2 2 2 2 2 2
5 5 5 5 4 4 4 4 4 3 3 3 2 2 2 3 3 4 3 2 3 3 2 2 2 2 2 2 2 2 2 3 3 3 3 3 3 2 2 2 2 2 3
5 5 4 4 4 4 4 4 6 4 5 5 4 3 3 3 3 3 2 2 2 3 2 2 2 2 3 3 3 3 3 3 3 3 3 3 3 3 2 2 2 3 3
5 5 4 4 4 3 3 3 4 5 5 5 4 3 2 3 2 2 2 1 2 3 2 2 2 2 2 2 2 2 3 3 2 3 3 3 3 3 3 3 3 3 3
5 5 4 4 3 3 3 3 3 3 4 4 4 4 3 3 2 2 1 1 2 2 2 2 2 2 2 2 2 2 2 2 2 3 3 3 3 3 3 3 3 4 3
5 4 4 4 3 3 3 3 3 3 3 3 3 4 4 3 2 2 0 1 1 1 1 2 2 2 2 2 2 2 2 2 2 2 3 3 3 3 3 3 3 4 3
4 5 5 4 3 3 3 3 3 3 3 3 3 3 3 3 2 2 1 1 0 1 1 1 2 2 2 2 2 2 2 2 3 3 3 3 3 3 3 4 4 4 3
4 4 5 4 3 3 3 3 3 3 3 3 3 4 4 2 2 2 1 1 1 1 1 1 1 2 2 2 2 2 3 3 3 3 3 3 3 3 3 3 3 3 3
3 3 3 3 3 3 3 3 3 3 3 3 3 4 4 2 2 2 2 2 2 2 2 2 2 2 2 2 3 3 4 4 3 3 3 3 3 3 3 3 3 3 3
3 3 3 3 3 4 4 3 3 3 3 3 3 3 3 2 2 2 2 2 2 2 2 2 3 3 3 3 4 4 4 4 4 4 4 3 3 3 3 4 4 4 4
3 4 4 3 3 3 3 3 3 3 3 3 3 3 3 3 3 3 3 3 3 3 3 3 3 4 4 4 4 5 6 6 5 5 6 5 4 4 4 4 4 4 4
3 3 4 3 3 3 3 3 3 3 3 3 3 3 3 3 3 3 3 3 4 4 4 5 4 4 5 5 5 6 6 7 6 6 6 5 5 5 5 5 4 4 4
3 4 4 3 3 4 3 3 3 4 3 3 4 4 4 4 4 4 4 4 4 4 5 5 5 6 6 6 6 7 7 7 7 7 6 5 5 5 5 4 5 5 5
Wind_Direction
356 343 334 324 297 257 241 237 235 232 225 221 221 219 219 218 216 214 212 209 212 215 214 215 217 214 210 209 211 217 227 235 240 246 228 220 217 221 221 228 234 234 235
343 338 334 324 308 271 252 247 241 237 234 229 225 222 222 223 220 220 219 215 215 217 217 217 218 214 215 213 209 214 220 224 230 237 236 222 229 229 232 232 234 238 244
337 335 329 317 304 284 269 258 247 240 236 232 228 228 226 225 224 223 223 223 221 221 221 219 219 215 215 213 213 215 217 219 225 229 235 231 236 229 237 242 243 246 249
336 333 325 310 301 290 277 260 249 243 238 235 235 237 234 230 227 224 225 225 226 225 223 223 222 220 221 215 215 216 213 213 216 222 228 229 232 229 227 235 246 248 252
332 328 322 313 304 293 281 269 255 247 244 239 237 237 235 234 229 224 223 226 226 227 225 224 224 224 226 222 218 214 209 211 213 218 224 228 227 220 227 232 243 253 263
323 320 318 311 308 299 289 279 265 254 247 240 236 235 236 237 230 228 230 229 228 228 227 225 224 222 223 221 223 222 217 214 216 219 227 229 231 231 230 225 231 245 256
316 314 313 309 307 300 295 287 276 266 255 245 239 236 238 237 227 227 227 232 231 230 228 224 223 224 220 222 219 220 224 225 228 229 229 232 234 226 221 224 230 243 256
318 314 313 312 306 303 297 291 285 277 262 253 247 241 241 238 228 225 224 230 233 234 232 228 224 222 221 217 216 219 226 228 227 229 232 236 236 229 223 230 233 247 264
323 317 312 309 303 300 299 296 288 277 272 266 259 249 245 243 230 225 224 230 230 235 237 234 228 227 220 211 214 217 223 231 227 224 229 229 229 225 218 213 215 226 250
321 316 313 305 298 295 295 295 292 280 274 275 272 261 249 247 238 232 225 226 226 231 234 232 229 231 223 214 217 216 221 226 217 213 219 225 227 219 213 220 219 224 240
320 317 315 311 305 299 300 297 293 282 274 272 273 269 258 253 244 239 230 227 225 227 232 233 230 219 223 223 226 226 225 223 216 214 218 219 220 218 220 228 234 229 230
323 322 321 320 317 311 312 308 299 282 265 260 259 267 266 260 250 241 233 234 239 231 235 237 231 219 227 227 228 222 217 215 212 207 211 216 218 221 227 233 237 241 245
328 327 326 327 326 321 313 306 306 288 260 254 251 259 272 270 258 249 236 233 240 241 237 233 236 226 231 230 223 215 209 213 210 210 215 220 219 219 219 233 247 239 257
328 328 330 332 332 333 329 318 309 298 274 258 255 257 267 276 269 259 244 235 230 232 226 213 217 218 220 221 214 209 215 216 212 216 215 213 203 204 218 223 233 229 241
331 331 331 333 331 332 334 331 320 309 292 277 267 260 256 259 266 277 262 244 229 218 210 209 222 213 212 210 208 210 212 211 215 219 210 205 208 212 226 228 235 233 235
335 334 332 330 328 329 334 339 349 340 338 325 302 286 279 272 273 282 275 249 213 191 191 198 210 217 222 221 214 212 215 216 216 210 210 211 212 216 223 234 240 238 238
334 332 330 326 325 328 332 338 343 352 359 355 340 321 301 294 283 280 257 205 188 180 187 198 211 218 225 226 221 217 223 217 210 207 212 213 210 210 214 223 229 236 240
334 332 329 325 325 325 326 329 333 336 339 344 343 339 329 317 309 301 245 189 186 186 197 205 215 222 226 224 222 222 219 210 208 208 212 216 212 208 211 220 224 232 239
331 331 332 329 329 329 330 332 332 330 331 334 338 340 339 333 340 344 332 196 196 205 211 216 225 233 235 232 230 225 218 216 215 208 208 211 211 209 214 221 227 226 232
331 337 335 330 331 333 333 330 328 328 328 330 333 336 339 346 348 345 347 326 242 236 240 236 236 239 241 240 240 236 229 223 218 218 216 212 212 215 222 223 226 224 226
327 333 339 335 331 329 326 322 322 324 326 327 328 333 339 336 334 334 330 321 295 274 272 269 263 256 250 243 242 238 235 233 225 220 217 213 213 222 229 228 228 223 218
325 327 331 329 325 326 325 320 319 320 321 322 324 331 338 340 333 324 316 312 312 307 296 280 272 269 265 253 244 242 239 237 230 225 222 218 218 223 225 225 226 222 212
322 324 325 325 324 325 328 326 323 320 319 318 320 324 328 328 323 317 310 306 304 300 296 284 276 276 271 261 248 242 241 241 238 228 223 221 221 224 226 227 225 227 220
317 319 322 324 325 323 322 322 321 319 317 317 318 318 320 320 320 317 311 304 299 297 293 283 276 279 280 269 258 251 247 248 242 230 221 219 222 226 229 226 228 230 228
319 321 320 319 319 318 317 316 316 317 316 316 316 316 316 318 320 320 315 309 304 297 298 290 278 275 275 270 266 260 257 252 246 237 224 223 225 226 225 227 227 230 229
322 319 316 315 315 314 312 309 308 310 310 312 312 312 312 311 310 311 310 309 306 299 297 291 287 286 285 278 270 266 262 257 253 246 236 230 226 223 220 224 226 226 227
Height
1492 1492 1493 1494 1495 1496 1497 1498 1499 1501 1502 1503 1505 1506 1507 1509 1510 1512 1513 1515 1517 1518 1519 1521 1522 1524 1525 1526 1528 1529 1531 1532 1532 1532 1533 1533 1533 1534 1534 1534 1534 1534 1534
1490 1490 1491 1491 1492 1493 1494 1495 1496 1497 1498 1500 1501 1502 1503 1505 1506 1507 1509 1510 1512 1513 1515 1516 1517 1519 1520 1522 1523 1524 1526 1527 1528 1528 1528 1528 1529 1529 1529 1529 1529 1529 1529
1489 1489 1489 1489 1490 1491 1491 1492 1492 1494 1495 1496 1497 1498 1499 1500 1502 1503 1504 1505 1507 1508 1509 1511 1512 1514 1515 1516 1518 1519 1520 1522 1523 1523 1523 1524 1524 1524 1525 1525 1525 1524 1524
1487 1486 1486 1487 1487 1488 1488 1489 1489 1490 1491 1492 1493 1494 1495 1496 1497 1498 1499 1500 1502 1503 1504 1506 1507 1509 1510 1511 1513 1514 1515 1516 1518 1518 1519 1519 1519 1519 1520 1520 1520 1520 1520
1484 1484 1484 1484 1484 1485 1485 1485 1486 1486 1487 1488 1489 1490 1490 1491 1492 1493 1494 1495 1497 1498 1499 1501 1502 1503 1505 1506 1508 1509 1510 1511 1512 1513 1513 1514 1514 1514 1515 1515 1515 1515 1514
1482 1482 1481 1481 1481 1481 1482 1482 1482 1482 1483 1484 1485 1485 1486 1486 1487 1488 1490 1491 1492 1493 1494 1495 1497 1498 1500 1501 1502 1504 1505 1506 1506 1507 1508 1508 1508 1509 1510 1510 1510 1510 1509
1480 1479 1479 1478 1478 1478 1478 1478 1478 1478 1479 1479 1480 1481 1481 1482 1483 1484 1485 1486 1487 1488 1489 1490 1491 1493 1494 1496 1496 1498 1499 1500 1501 1503 1502 1503 1504 1504 1505 1505 1506 1506 1505
1477 1476 1476 1475 1475 1475 1475 1475 1475 1475 1475 1475 1476 1476 1477 1477 1478 1479 1480 1481 1482 1483 1484 1485 1486 1487 1489 1490 1491 1492 1493 1494 1495 1496 1497 1498 1499 1500 1500 1501 1501 1501 1501
1475 1474 1473 1472 1472 1472 1471 1471 1471 1471 1471 1471 1471 1471 1472 1473 1474 1475 1476 1476 1477 1478 1479 1480 1481 1482 1484 1485 1486 1487 1488 1489 1490 1491 1492 1493 1494 1495 1495 1496 1496 1496 1495
1472 1471 1470 1470 1469 1468 1467 1467 1467 1467 1467 1466 1467 1467 1468 1468 1469 1470 1471 1472 1472 1473 1474 1475 1476 1477 1479 1480 1481 1482 1482 1483 1485 1486 1487 1487 1488 1489 1490 1491 1491 1491 1490
1470 1468 1467 1467 1466 1465 1464 1464 1463 1463 1463 1462 1462 1463 1463 1464 1465 1466 1467 1468 1468 1469 1469 1470 1471 1472 1474 1475 1476 1477 1478 1479 1480 1480 1481 1482 1483 1484 1484 1485 1486 1486 1486
1468 1466 1465 1464 1463 1462 1461 1460 1459 1459 1459 1458 1458 1458 1459 1460 1460 1461 1462 1464 1465 1465 1465 1466 1466 1468 1469 1470 1471 1472 1473 1474 1475 1475 1476 1477 1477 1478 1479 1480 1480 1481 1481
1466 1464 1462 1461 1460 1459 1458 1457 1456 1455 1455 1455 1455 1455 1455 1456 1456 1457 1458 1459 1460 1461 1461 1462 1463 1463 1464 1465 1466 1467 1468 1469 1469 1470 1470 1471 1473 1473 1474 1475 1475 1476 1476
1464 1462 1460 1459 1457 1456 1455 1454 1453 1452 1452 1452 1452 1452 1452 1452 1453 1453 1454 1455 1456 1457 1457 1458 1459 1459 1460 1461 1461 1462 1463 1464 1464 1465 1466 1467 1468 1469 1469 1470 1470 1470 1470
1462 1460 1458 1457 1456 1454 1453 1452 1451 1451 1450 1450 1449 1449 1449 1449 1449 1450 1450 1451 1452 1453 1453 1454 1454 1455 1455 1456 1457 1457 1458 1459 1460 1461 1462 1462 1463 1464 1464 1465 1465 1465 1465
1460 1458 1457 1455 1454 1453 1451 1450 1449 1449 1448 1448 1447 1447 1446 1446 1446 1447 1447 1448 1449 1450 1450 1450 1450 1451 1451 1452 1452 1453 1454 1455 1456 1456 1457 1458 1458 1459 1459 1460 1460 1460 1460
1458 1457 1455 1454 1453 1452 1450 1449 1447 1446 1445 1445 1444 1444 1444 1443 1443 1444 1444 1445 1446 1446 1447 1446 1447 1447 1448 1448 1449 1449 1450 1451 1452 1452 1453 1453 1454 1454 1455 1455 1455 1455 1455
1457 1456 1455 1453 1452 1451 1449 1448 1447 1445 1443 1442 1442 1442 1441 1441 1441 1441 1442 1442 1442 1443 1443 1444 1444 1444 1445 1445 1445 1446 1446 1447 1448 1448 1449 1449 1449 1450 1450 1450 1451 1451 1451
1456 1455 1454 1452 1451 1450 1449 1447 1446 1445 1443 1442 1440 1440 1440 1439 1439 1439 1439 1439 1439 1440 1441 1441 1441 1442 1442 1442 1443 1443 1443 1444 1444 1444 1445 1445 1446 1446 1446 1446 1447 1447 1448
1455 1454 1453 1451 1450 1449 1448 1446 1445 1444 1442 1441 1440 1439 1438 1438 1437 1437 1437 1437 1437 1438 1438 1438 1439 1439 1439 1439 1440 1440 1440 1441 1441 1441 1441 1442 1442 1442 1443 1443 1443 1444 1444
1454 1453 1451 1450 1449 1448 1447 1445 1444 1443 1441 1440 1439 1438 1437 1437 1436 1436 1436 1435 1435 1436 1436 1436 1436 1436 1437 1437 1437 1437 1438 1438 1438 1438 1438 1439 1439 1439 1439 1439 1440 1440 1440
1453 1451 1450 1449 1448 1446 1445 1444 1443 1441 1440 1439 1438 1437 1436 1435 1435 1434 1434 1434 1434 1433 1434 1434 1433 1434 1434 1434 1434 1435 1435 1435 1435 1435 1435 1435 1436 1436 1436 1436 1436 1437 1437
1451 1450 1449 1447 1446 1445 1444 1442 1441 1440 1439 1438 1437 1436 1435 1434 1433 1432 1432 1432 1431 1431 1431 1431 1431 1431 1431 1431 1431 1431 1431 1431 1431 1431 1432 1432 1432 1432 1433 1433 1433 1433 1434
1450 1448 1447 1446 1445 1443 1442 1441 1439 1438 1437 1436 1435 1434 1433 1432 1431 1431 1430 1430 1429 1429 1428 1428 1428 1428 1428 1428 1427 1427 1427 1428 1428 1428 1429 1429 1429 1429 1430 1430 1430 1430 1431
1448 1447 1446 1444 1443 1441 1440 1439 1438 1437 1435 1434 1433 1432 1431 1431 1430 1429 1428 1427 1427 1426 1426 1426 1425 1425 1425 1424 1424 1424 1424 1424 1425 1425 1425 1425 1426 1426 1426 1426 1427 1427 1427
1446 1445 1444 1442 1441 1439 1438 1437 1436 1435 1434 1432 1431 1431 1430 1429 1428 1427 1426 1425 1424 1424 1423 1423 1422 1422 1422 1421 1421 1421 1421 1421 1421 1421 1422 1422 1422 1422 1422 1423 1423 1423 1424